Regional Weather Roundup
Issued by NWS Jackson, KY

Home | Current Version | Previous Version | Graphics & Text | Print | Product List | Glossary On
Versions: 1 2 3 4 5 6 7 8 9 10 11 12 13 14 15 16 17 18 19 20 21 22 23 24 25 26 27 28 29 30 31 32 33 34 35 36 37 38 39 40 41 42 43 44 45 46 47 48 49 50
000
ASUS43 KJKL 191210
RWRJKL

EAST KENTUCKY HOURLY WEATHER ROUNDUP
NATIONAL WEATHER SERVICE JACKSON KY
700 AM EST THU JAN 19 2017

NOTE: "FAIR" INDICATES FEW OR NO CLOUDS BELOW 12,000 FEET WITH
NO SIGNIFICANT WEATHER AND/OR OBSTRUCTIONS TO VISIBILITY.

* THESE REPORTS ARE NOT UNDER NWS QUALITY CONTROL AND MAY NOT
  REPORT WEATHER SUCH AS PRECIPITATION AND FOG.

KYZ079-080-083-085-087-088-110-112-115-119-120-191300
...EASTERN KENTUCKY...

CITY           SKY/WX    TMP DP  RH WIND       PRES   REMARKS
JACKSON        PTCLDY    38  35  89 NE3       30.07F
6HR MIN TEMP:  35; 6HR MAX TEMP:  40;

LONDON         PTCLDY    39  36  89 CALM      30.07R
6HR MIN TEMP:  38; 6HR MAX TEMP:  40;

SOMERSET*      CLOUDY    37  37 100 CALM      30.07F
MONTICELLO*    CLOUDY    42  40  92 VRB7      30.07S
6HR MIN TEMP:  39; 6HR MAX TEMP:  42;

WILLIAMSBURG*  MOSUNNY   39  39 100 SE5       30.06S
MIDDLESBORO*   PTCLDY    38  38 100 CALM      30.10S
6HR MIN TEMP:  38; 6HR MAX TEMP:  40;

HARLAN APT*    PTSUNNY   36  36 100 CALM      30.08S
PIKE CO APT*     N/A     37  37 100 S3        30.09S
MOREHEAD APT*  PTSUNNY   39  37  93 CALM      30.12R
ASHLAND*       MOCLDY    37  36  93 CALM      30.12R
$$

KYZ035-036-041-042-044-050-067-078-099-191300
...CENTRAL KENTUCKY...

CITY           SKY/WX    TMP DP  RH WIND       PRES   REMARKS
MT STERLING*   CLOUDY    37  36  93 E6        30.09S WCI  33
FLEMING/MASON* CLOUDY    36  36 100 E3        30.12S FOG
DANVILLE*      MOCLDY    37  36  93 CALM      30.08S
LEXINGTON      CLOUDY    40  36  86 SE6       30.07S
6HR MIN TEMP:  35; 6HR MAX TEMP:  41;

FRANKFORT      CLOUDY    39  35  86 CALM      30.07S
6HR MIN TEMP:  34; 6HR MAX TEMP:  39;

LOUISVILLE     CLOUDY    42  36  79 CALM      30.07F
6HR MIN TEMP:  40; 6HR MAX TEMP:  42;

LEBANON*         N/A     39  37  93 E6        30.05F WCI  35
GLASGOW*       CLOUDY    44  43  95 E3        30.02F FOG
BOWLING GREEN  CLOUDY    46  41  82 S5        30.04S
6HR MIN TEMP:  43; 6HR MAX TEMP:  46;

$$

KYZ091>093-OHZ055-061-077-WVZ005-015-034-035-042-191300
...SOUTHERN OHIO/WEST VIRGINIA...

CITY           SKY/WX    TMP DP  RH WIND       PRES   REMARKS
COVINGTON      CLOUDY    37  36  96 E7        30.07F WCI  32
COLUMBUS       CLOUDY    40  36  86 S5        30.10F
DAYTON         CLOUDY    36  34  92 S5        30.08F WCI  32
WILMINGTON     CLOUDY    37  35  92 CALM      30.09S
HUNTINGTON     CLOUDY    38  36  92 CALM      30.11R
CHARLESTON     CLOUDY    41  38  89 CALM      30.10F
PINEVILLE*     FOG       36  34  93 MISG      30.15R VSB 1/2
BECKLEY        CLOUDY    36  35  96 CALM      30.07S FOG
BLUEFIELD      CLOUDY    34  33  96 SW5       30.08R WCI  30
LOGAN CO APT*  FOG       37  37 100 CALM      30.08F VSB 1
$$

VAZ002-007-008-TNZ017-027-036-066-071-191300
...SOUTHWEST VIRGINIA/EAST TENNESSEE...

CITY           SKY/WX    TMP DP  RH WIND       PRES   REMARKS
WISE*          MOCLDY    41  41 100 SW3       30.08R
JONESVILLE*      N/A     37  37 100 CALM      30.10S
ABINGDON*      PTCLDY    39  38  96 CALM      30.08S
BRISTOL        CLOUDY    36  35  96 CALM      30.09S
MORRISTOWN*    SUNNY     43  39  87 NE3       30.06S
SEVIERVILLE*   SUNNY     39  37  93 CALM      30.07R
KNOXVILLE      MOCLDY    44  40  85 NE5       30.05S
LAFOLLETTE*    SUNNY     41  41 100 CALM      30.10F
OAK RIDGE      CLOUDY    44  40  85 CALM      30.08S
CROSSVILLE     CLOUDY    45  43  93 CALM      30.05S
NASHVILLE      CLOUDY    47  45  93 NE5       30.02S
$$

...KEY TO REMARKS...
VSB - VISIBILITY IN MILES
WCI - WIND CHILL INDEX
HX  - HEAT INDEX

$$



USA.gov is the U.S. government's official web portal to all federal, state and local government web resources and services.